This is the latest recevied weather packets stored in our database for station/object KQ4NAL. If no packets are shown the sender has not sent any weather packets the latest 1 day(s).
| Time | Temp. | Humidity | Pressure | Rain* | Wind** | Luminosity | Snow |
|---|---|---|---|---|---|---|---|
| 1778055537 | 8.33° C | 99% | 1008.8 hPa | 0 mm | - | 0 W/m² | - |
| 1778054024 | 8.33° C | 99% | 1008.9 hPa | 0 mm | - | 0 W/m² | - |
| 1778053418 | 8.33° C | 99% | 1008.5 hPa | 0 mm | - | 0 W/m² | - |
| 1778053115 | 8.89° C | 99% | 1008.5 hPa | 0 mm | - | 0 W/m² | - |
| 1778052813 | 8.89° C | 99% | 1008.6 hPa | 3.05 mm | - | 0 W/m² | - |
| 1778052510 | 8.89° C | 99% | 1008 hPa | 6.1 mm | - | 0 W/m² | - |
| 1778052208 | 8.89° C | 99% | 1008.1 hPa | 8.89 mm | - | 0 W/m² | - |
| 1778051604 | 9.44° C | 99% | 1008.6 hPa | 1.78 mm | - | 0 W/m² | - |
| 1778051300 | 9.44° C | 99% | 1008.5 hPa | 1.78 mm | - | 0 W/m² | - |
| 1778050997 | 9.44° C | 99% | 1007.9 hPa | 3.05 mm | - | 0 W/m² | - |
| 1778050694 | 10° C | 99% | 1007.7 hPa | 1.27 mm | - | 0 W/m² | - |
| 1778050392 | 10° C | 99% | 1007.6 hPa | 0 mm | - | 0 W/m² | - |
| 1778050088 | 10.56° C | 99% | 1007.6 hPa | 1.78 mm | - | 0 W/m² | - |
| 1778049481 | 11.11° C | 99% | 1007.3 hPa | 3.05 mm | - | 0 W/m² | - |
| 1778048574 | 12.22° C | 99% | 1007.3 hPa | 12.7 mm | - | 0 W/m² | - |
| 1778048270 | 13.33° C | 99% | 1007.4 hPa | 10.67 mm | - | 0 W/m² | - |
| 1778047967 | 14.44° C | 99% | 1007.4 hPa | 10.67 mm | - | 0 W/m² | - |
| 1778047363 | 14.44° C | 99% | 1007.3 hPa | 8.89 mm | - | 0 W/m² | - |
| 1778046756 | 14.44° C | 99% | 1007.4 hPa | 10.67 mm | - | 0 W/m² | - |
| 1778045847 | 14.44° C | 99% | 1007.5 hPa | 4.83 mm | - | 0 W/m² | - |
| 1778045243 | 14.44° C | 99% | 1007.5 hPa | 4.83 mm | - | 0 W/m² | - |
| 1778044638 | 14.44° C | 99% | 1007.5 hPa | 3.05 mm | - | 0 W/m² | - |
| 1778044033 | 14.44° C | 99% | 1007.5 hPa | 3.05 mm | - | 0 W/m² | - |
| 1778042821 | 14.44° C | 99% | 1007.6 hPa | 0 mm | - | 0 W/m² | - |
| 1778042517 | 14.44° C | 99% | 1007.5 hPa | 0 mm | - | 0 W/m² | - |
* Rain latest hour (hover to see other rain measurements)
** Current wind speed in m/s (hover to see current wind gust speed)